{"data":{"norad_id":62368,"intl_designator":"2024-245D","name":"TIANQI-36","alt_names":[],"object_type":"PAYLOAD","status":"ACTIVE","operator":null,"country":"PRC","launch_date":"2024-12-19","launch_site_code":"YSLA","launch_vehicle":null,"mission":null,"orbit_class":"UNKNOWN","rcs_meters":null,"size_class":null,"mass_kg":null,"dimensions":null,"purposes":[],"wikipedia_slug":null,"has_3d_model":false,"image_url":null,"decayed_at":null,"tle_current":{"epoch":"2026-05-25T04:34:44.567040Z","epoch_age_seconds":54676,"freshness":"FRESH","line1":"1 62368U 24245D   26145.19079360  .00000050  00000+0  12219-3 0  9997","line2":"2 62368  44.9852  63.8298 0008970 271.9106  88.0699 13.99209869 73124","mean_motion":13.99209869,"eccentricity":0.000897,"inclination_deg":44.9852,"raan_deg":63.8298,"arg_perigee_deg":271.9106,"mean_anomaly_deg":88.0699,"bstar":0.00012219,"rev_number":7312,"period_min":102.91522607893,"perigee_km":890.00713484765,"apogee_km":903.05789195469,"semimajor_km":7274.6695134012,"source":"CELESTRAK","updated_at":"2026-05-25T13:38:02.942665Z"}}}